Location: Unspecified
(41.5000°N, 0.0000°E)
Time: 01:41:38
(UTC+00:00)

Vanguard 1 Rocket - Visible Passes

Search period start: 26 June 2019 00:00
Search period end: 06 July 2019 00:00
Orbit: 652 x 4224 km, 34.3° (Epoch: 24 June)

Date Brightness Start Highest point End Pass type
(mag) Time Alt. Az. Time Alt. Az. Time Alt. Az.
26 Jun 8.9 20:08:24 10° W 20:20:08 46° SSW 20:26:29 10° SE visible
26 Jun 9.5 22:41:25 10° WSW 22:43:39 11° SW 22:43:50 11° SW visible
27 Jun 9.0 21:25:42 10° W 21:33:22 25° SW 21:36:31 18° S visible
28 Jun 9.1 20:10:55 10° W 20:22:41 41° SSW 20:29:11 10° SE visible
29 Jun 9.3 21:28:46 10° W 21:35:40 20° SW 21:39:13 14° S visible
30 Jun 9.4 20:13:28 10° W 20:25:07 36° SW 20:31:44 10° SSE visible
01 Jul 9.6 21:32:12 10° W 21:37:51 16° SW 21:41:56 10° SSW visible
02 Jul 9.6 20:16:07 10° W 20:27:25 31° SW 20:34:06 10° SSE visible
03 Jul 10.0 21:36:35 10° WSW 21:39:53 12° SW 21:42:40 10° SW visible
04 Jul 9.8 20:18:56 10° W 20:29:33 26° SW 20:36:12 10° S visible
